EA1M Weather Reports


Display with metric or nautical units.
time (UTC)temp
F
wind
direction
speed
MPH
gust
MPH
rain 1hr
in
rain 24hr
in
rain mn
in
humidity
%
barometer
mb
20260504212125 52 140 3.0 7.0 0.00 0.07 0.07 90 1017.7
20260504211109 53 105 2.0 4.0 0.00 0.07 0.07 89 1017.6
20260504210028 53 106 3.0 6.0 0.00 0.07 0.07 88 1017.6
20260504205113 53 136 3.0 6.0 0.00 0.07 0.07 86 1017.6
20260504204118 53 61 1.0 2.0 0.00 0.07 0.07 83 1017.5
20260504203037 53 80 1.0 2.0 0.00 0.07 0.07 83 1017.3
20260504202101 53 83 1.0 2.0 0.00 0.07 0.07 83 1017.4
20260504201020 53 89 1.0 3.0 0.00 0.07 0.07 81 1017.4
20260504200107 53 354 2.0 6.0 0.00 0.07 0.07 81 1017.3
20260504195109 53 338 2.0 7.0 0.00 0.07 0.07 82 1017.2
20260504194028 53 330 4.0 8.0 0.02 0.07 0.07 84 1017.0
20260504193052 54 298 5.0 8.0 0.02 0.07 0.07 84 1016.9
20260504192116 54 312 4.0 7.0 0.02 0.07 0.07 83 1016.8
20260504191036 54 315 3.0 7.0 0.02 0.07 0.07 83 1016.8
20260504190101 54 153 3.0 6.0 0.02 0.07 0.07 83 1016.7
20260504185020 53 347 4.0 8.0 0.02 0.07 0.07 81 1016.6
20260504184044 56 289 6.0 17.0 0.00 0.05 0.05 77 1016.6
20260504183108 56 275 3.0 7.0 0.00 0.05 0.05 76 1016.6
20260504182028 56 322 3.0 7.0 0.00 0.05 0.05 75 1016.4
20260504181133 56 354 3.0 8.0 0.00 0.05 0.05 74 1016.5
20260504180116 57 298 4.0 11.0 0.00 0.05 0.05 72 1016.6
20260504175036 58 332 2.0 7.0 0.00 0.05 0.05 70 1016.6
20260504174101 59 314 3.0 8.0 0.00 0.05 0.05 69 1016.5
20260504173041 58 308 3.0 11.0 0.00 0.05 0.05 70 1016.6
20260504172044 58 313 4.0 9.0 0.00 0.05 0.05 71 1016.6
20260504171108 56 315 4.0 7.0 0.00 0.05 0.05 75 1016.5
20260504151037 57 319 4.0 10.0 0.00 0.02 0.02 78 1016.4
20260504141053 56 301 4.0 10.0 0.00 0.02 0.02 79 1016.8
20260504140116 57 278 4.0 11.0 0.00 0.02 0.02 76 1016.5
20260504100117 57 333 3.0 7.0 0.00 0.01 0.01 75 1016.6
20260504090109 57 272 5.0 11.0 0.00 0.01 0.01 70 1016.5
20260504081020 53 126 3.0 6.0 0.00 0.01 0.01 88 1016.4
20260504070120 50 100 1.0 3.0 0.00 0.02 0.01 93 1016.3
20260504060117 49 89 2.0 3.0 0.00 0.02 0.01 94 1015.9
20260504045052 48 133 4.0 6.0 0.00 0.02 0.01 94 1015.7
20260504044117 49 152 3.0 6.0 0.00 0.02 0.01 94 1015.8
20260504043037 49 125 3.0 4.0 0.00 0.02 0.01 94 1015.8
20260504042101 49 112 2.0 3.0 0.00 0.02 0.01 94 1015.7
20260504041020 49 108 3.0 4.0 0.00 0.02 0.01 94 1015.8
20260504040045 49 144 3.0 4.0 0.00 0.02 0.01 94 1015.8
20260504035108 50 128 2.0 3.0 0.00 0.02 0.01 94 1015.9
20260504034028 50 133 3.0 4.0 0.00 0.02 0.01 94 1015.9
20260504033052 49 37 0.0 2.0 0.00 0.02 0.01 94 1015.9
20260504032117 49 95 1.0 3.0 0.00 0.02 0.01 94 1015.9
20260504031036 50 138 4.0 6.0 0.00 0.02 0.01 94 1015.8
20260504030100 49 132 3.0 7.0 0.01 0.02 0.01 94 1015.8
20260504025020 50 141 4.0 6.0 0.01 0.02 0.01 94 1015.8
20260504024044 50 127 4.0 7.0 0.01 0.02 0.01 94 1015.8
20260504023107 50 144 4.0 6.0 0.01 0.02 0.01 94 1015.9
20260504022048 50 124 3.0 6.0 0.01 0.02 0.01 94 1015.9
20260504021112 49 124 3.0 6.0 0.01 0.02 0.01 93 1016.0
20260504020116 49 120 4.0 6.0 0.00 0.03 0.00 93 1016.1
20260504015035 50 143 3.0 6.0 0.00 0.04 0.00 93 1016.0
20260504014101 50 124 3.0 4.0 0.00 0.04 0.00 93 1016.1
20260504013021 50 134 3.0 4.0 0.00 0.04 0.00 93 1016.1
20260504012045 50 105 3.0 4.0 0.00 0.04 0.00 93 1016.2
20260504011108 50 115 2.0 3.0 0.00 0.04 0.00 93 1016.1
20260504010028 50 102 2.0 3.0 0.00 0.05 0.00 92 1016.2
20260504005052 50 109 2.0 4.0 0.00 0.05 0.00 92 1016.3
20260504004116 50 101 2.0 3.0 0.00 0.05 0.00 92 1016.3
20260504003036 51 99 2.0 3.0 0.00 0.05 0.00 91 1016.3
20260504002059 51 87 1.0 3.0 0.00 0.05 0.00 91 1016.3
20260504001020 51 86 1.0 3.0 0.00 0.05 0.00 90 1016.4
20260504000044 52 79 1.0 3.0 0.00 0.05 0.00 89 1016.3
20260503235108 52 86 1.0 2.0 0.00 0.05 0.00 88 1016.3
20260503234028 52 77 1.0 2.0 0.00 0.07 0.00 87 1016.4
20260503233052 53 74 1.0 2.0 0.00 0.09 0.00 85 1016.4
20260503232116 54 82 1.0 2.0 0.00 0.15 0.00 82 1016.4
20260503231037 54 37 0.0 1.0 0.00 0.17 0.00 79 1016.4
20260503225020 55 13 1.0 3.0 0.00 0.19 0.00 79 1016.5
20260503224044 55 31 1.0 3.0 0.00 0.19 0.00 79 1016.5
20260503223108 55 23 1.0 2.0 0.00 0.19 0.00 79 1016.5
20260503222048 55 19 1.0 3.0 0.00 0.19 0.00 79 1016.5
20260503221053 55 19 2.0 4.0 0.00 0.19 0.00 78 1016.6
20260503220116 55 28 2.0 4.0 0.00 0.19 0.00 79 1016.4
20260503215036 56 42 1.0 3.0 0.00 0.19 0.19 80 1016.4
20260503214027 56 21 2.0 4.0 0.00 0.19 0.19 80 1016.3
20260503213053 55 352 1.0 3.0 0.00 0.19 0.19 79 1016.3